BAW315 LFPG-EGLL

Flight info

Callsign BAW315
Flight time N/A
Altitude 24000
Route OPALE DCT KESAX DCT DIMAL DCT ALESO
Aircraft A20N/M-SDE2E3FGHIRWXY/LB1

Departure

Time N/A
Airport Charles de Gaulle International Airport (LFPG)

Arrival

Time 2026-05-05 18:10
Airport London Heathrow Airport (EGLL)
Time Latitude Longitude Altitude Speed Heading
2026-05-05 18:07 51.47665 -0.70814 3649 ft 223 kts 88°
2026-05-05 18:07 51.47663 -0.70443 3506 ft 227 kts 88°
2026-05-05 18:08 51.47641 -0.67810 2718 ft 246 kts 89°
2026-05-05 18:08 51.47613 -0.65952 2421 ft 247 kts 90°
2026-05-05 18:08 51.47536 -0.62345 1937 ft 240 kts 90°
2026-05-05 18:08 51.47509 -0.60604 1922 ft 222 kts 88°
2026-05-05 18:09 51.47555 -0.57449 1500 ft 210 kts 85°
2026-05-05 18:09 51.47641 -0.55181 1302 ft 197 kts 83°
2026-05-05 18:09 51.47755 -0.52990 802 ft 201 kts 86°
2026-05-05 18:09 51.47733 -0.50768 293 ft 194 kts 88°
2026-05-05 18:10 51.47752 -0.48680 177 ft 200 kts 87°
2026-05-05 18:10 51.47761 -0.46587 89 ft 145 kts 90°
2026-05-05 18:10 51.47756 -0.45550 87 ft 23 kts 109°
2026-05-05 18:10 51.47656 -0.45474 90 ft 9 kts 205°
2026-05-05 18:11 51.47619 -0.45473 88 ft 0 kts 172°
2026-05-05 18:12 51.47594 -0.45507 89 ft 7 kts 263°
2026-05-05 18:12 51.47596 -0.45655 90 ft 19 kts 270°
2026-05-05 18:12 51.47596 -0.45902 86 ft 25 kts 271°
2026-05-05 18:13 51.47598 -0.46197 86 ft 27 kts 266°
2026-05-05 18:13 51.47592 -0.46496 87 ft 21 kts 270°
2026-05-05 18:13 51.47592 -0.46734 87 ft 22 kts 269°
2026-05-05 18:13 51.47585 -0.46995 86 ft 24 kts 270°
2026-05-05 18:14 51.47583 -0.47278 90 ft 26 kts 268°
2026-05-05 18:14 51.47582 -0.47452 91 ft 11 kts 269°
2026-05-05 18:14 51.47580 -0.47597 90 ft 15 kts 269°
2026-05-05 18:14 51.47579 -0.47779 87 ft 18 kts 270°
2026-05-05 18:15 51.47580 -0.47991 89 ft 21 kts 271°
2026-05-05 18:15 51.47580 -0.48233 88 ft 23 kts 270°
2026-05-05 18:15 51.47578 -0.48346 88 ft 6 kts 265°
2026-05-05 18:15 51.47572 -0.48437 87 ft 10 kts 256°
2026-05-05 18:16 51.47510 -0.48482 86 ft 12 kts 179°
2026-05-05 18:16 51.47413 -0.48475 86 ft 14 kts 181°
2026-05-05 18:16 51.47345 -0.48480 86 ft 1 kts 182°
2026-05-05 18:16 51.47317 -0.48480 86 ft 10 kts 178°
2026-05-05 18:17 51.47216 -0.48476 86 ft 17 kts 178°
2026-05-05 18:17 51.47190 -0.48494 90 ft 3 kts 237°
2026-05-05 18:17 51.47187 -0.48535 89 ft 0 kts 270°
2026-05-05 18:17 51.47187 -0.48550 87 ft 0 kts 272°
2026-05-05 18:18 51.47187 -0.48580 87 ft 5 kts 270°
2026-05-05 18:18 51.47187 -0.48589 87 ft 1 kts 269°
2026-05-05 18:18 51.47187 -0.48594 87 ft 0 kts 269°